Date String (YYYY-MM-DD hh:mm:ss) UTC,Instrument flags,Ambient pressure (hPa),Sample flow (lpm),Bypass flow (lpm),Sample temperature (°C),Ambient temperature (°C),ASC tube jacket temperature (°C),LED temperature (°C),Box temperature (°C),Sample RH (%),Span deviation,Mass concentration (μg/m³),Mass concentration (μg/m³),Mass concentration (μg/m³)
DateTimeUTC,F1_M11,P_M11,Q1_M11,Q2_M11,T1_M11,T2_M11,T3_M11,T4_M11,T5_M11,U1_M11,ZSPAN_M11,X0_M11,X2_M11,X1_M11
2023-04-06 22:00:00,,0833.2,4.99,0.00,22.5,21.2,00.0,30.7,24.1,05.5,0000.0,0009.56,0003.93,0003.09
2023-04-06 22:01:00,,0833.4,5.00,0.00,22.5,21.2,00.0,30.7,24.1,05.7,0000.0,0009.52,0003.90,0003.05
2023-04-06 22:02:00,,0833.3,5.01,0.00,22.5,21.2,00.0,30.8,24.1,05.6,0000.0,0008.70,0003.87,0003.01
2023-04-06 22:03:00,,0833.2,5.00,0.00,22.6,21.3,00.0,30.8,24.1,05.4,0000.0,0008.80,0003.86,0002.96
2023-04-06 22:04:00,,0833.2,5.00,0.00,22.6,21.3,00.0,30.8,24.2,05.6,0000.0,0008.74,0003.78,0002.93
2023-04-06 22:05:00,,0833.2,5.00,0.00,22.6,21.4,00.0,30.8,24.2,05.7,0000.0,0008.74,0003.75,0002.89
2023-04-06 22:06:00,,0833.3,4.99,0.00,22.6,21.4,00.0,30.8,24.2,05.5,0000.0,0008.81,0003.76,0002.86
2023-04-06 22:07:00,,0833.3,4.99,0.00,22.6,21.5,00.0,30.8,24.2,05.9,0000.0,0008.73,0003.76,0002.87
2023-04-06 22:08:00,,0833.3,5.00,0.00,22.7,21.5,00.0,30.8,24.2,06.5,0000.0,0008.78,0003.74,0002.87
2023-04-06 22:09:00,,0833.2,5.00,0.00,22.7,21.5,00.0,30.9,24.3,06.3,0000.0,0008.63,0003.69,0002.85
2023-04-06 22:10:00,,0833.2,5.01,0.00,22.7,21.5,00.0,30.9,24.3,06.1,0000.0,0008.15,0003.66,0002.84
2023-04-06 22:11:00,,0833.2,4.99,0.00,22.7,21.5,00.0,30.9,24.2,06.2,0000.0,0007.83,0003.62,0002.83
2023-04-06 22:12:00,,0833.2,4.99,0.00,22.7,21.5,00.0,30.9,24.2,06.3,0000.0,0007.95,0003.56,0002.80
2023-04-06 22:13:00,,0833.2,5.01,0.00,22.7,21.4,00.0,30.9,24.2,06.3,0000.0,0008.22,0003.53,0002.78
2023-04-06 22:14:00,,0833.2,5.01,0.00,22.7,21.4,00.0,30.9,24.3,06.2,0000.0,0007.92,0003.50,0002.76
2023-04-06 22:15:00,,0833.2,4.99,0.00,22.7,21.3,00.0,30.9,24.3,06.6,0000.0,0008.25,0003.49,0002.72
2023-04-06 22:16:00,,0833.2,4.99,0.00,22.7,21.3,00.0,30.9,24.3,06.7,0000.0,0008.26,0003.46,0002.69
2023-04-06 22:17:00,,0833.2,5.02,0.00,22.7,21.3,00.0,30.9,24.3,06.4,0000.0,0008.22,0003.44,0002.63
2023-04-06 22:18:00,,0833.2,5.00,0.00,22.7,21.3,00.0,31.0,24.3,06.7,0000.0,0008.17,0003.40,0002.59
2023-04-06 22:19:00,,0833.2,4.99,0.00,22.7,21.3,00.0,31.0,24.3,06.3,0000.0,0008.21,0003.42,0002.57
2023-04-06 22:20:00,,0833.2,5.00,0.00,22.7,21.3,00.0,31.0,24.2,06.4,0000.0,0008.28,0003.46,0002.58
2023-04-06 22:21:00,,0833.2,5.00,0.00,22.7,21.3,00.0,31.0,24.2,06.4,0000.0,0008.54,0003.44,0002.56
2023-04-06 22:22:00,,0833.2,5.00,0.00,22.7,21.3,00.0,31.0,24.2,06.7,0000.0,0008.60,0003.47,0002.57
2023-04-06 22:23:00,,0833.2,5.00,0.00,22.7,21.3,00.0,31.0,24.3,06.4,0000.0,0008.47,0003.52,0002.60
2023-04-06 22:24:00,,0833.2,4.99,0.00,22.7,21.3,00.0,31.0,24.2,06.9,0000.0,0008.01,0003.51,0002.60
2023-04-06 22:25:00,,0833.2,5.00,0.00,22.7,21.3,00.0,31.0,24.3,07.2,0000.0,0009.27,0003.47,0002.60
2023-04-06 22:26:00,,0833.2,5.00,0.00,22.7,21.3,00.0,31.0,24.3,07.8,0000.0,0008.60,0003.44,0002.61
2023-04-06 22:27:00,,0833.3,5.01,0.00,22.7,21.3,00.0,31.0,24.3,07.7,0000.0,0008.50,0003.43,0002.62
2023-04-06 22:28:00,,0833.2,5.00,0.00,22.7,21.3,00.0,31.0,24.3,06.8,0000.0,0008.55,0003.42,0002.62
2023-04-06 22:29:00,,0833.1,5.00,0.00,22.7,21.3,00.0,31.0,24.3,07.1,0000.0,0008.64,0003.44,0002.62
2023-04-06 22:30:00,,0833.2,4.99,0.00,22.7,21.3,00.0,31.0,24.2,07.6,0000.0,0008.87,0003.47,0002.65
2023-04-06 22:31:00,,0833.2,4.99,0.00,22.7,21.3,00.0,31.0,24.2,07.2,0000.0,0009.46,0003.48,0002.68
2023-04-06 22:32:00,,0833.1,5.01,0.00,22.7,21.2,00.0,31.0,24.2,07.3,0000.0,0009.11,0003.45,0002.72
2023-04-06 22:33:00,,0833.1,5.00,0.00,22.7,21.1,00.0,31.0,24.2,07.1,0000.0,0009.02,0003.43,0002.75
2023-04-06 22:34:00,,0833.0,4.99,0.00,22.7,21.0,00.0,31.0,24.2,07.4,0000.0,0009.14,0003.43,0002.78
2023-04-06 22:35:00,,0833.0,5.00,0.00,22.7,21.0,00.0,31.0,24.2,07.5,0000.0,0009.35,0003.44,0002.81
2023-04-06 22:36:00,,0833.0,5.00,0.00,22.6,21.0,00.0,31.0,24.2,07.1,0000.0,0008.16,0003.45,0002.84
2023-04-06 22:37:00,,0833.0,5.00,0.00,22.6,21.0,00.0,31.0,24.2,07.0,0000.0,0008.19,0003.49,0002.88
2023-04-06 22:38:00,,0833.2,4.99,0.00,22.6,21.1,00.0,31.0,24.2,07.2,0000.0,0008.77,0003.56,0002.94
2023-04-06 22:39:00,,0833.1,5.01,0.00,22.6,21.1,00.0,31.0,24.2,07.1,0000.0,0009.02,0003.56,0002.96
2023-04-06 22:40:00,,0833.2,5.02,0.00,22.6,21.0,00.0,31.0,24.1,07.3,0000.0,0009.10,0003.59,0002.99
2023-04-06 22:41:00,,0833.1,5.00,0.00,22.6,21.0,00.0,31.0,24.1,07.5,0000.0,0009.08,0003.60,0003.01
2023-04-06 22:42:00,,0833.2,4.99,0.00,22.6,21.0,00.0,31.0,24.1,07.2,0000.0,0008.47,0003.60,0003.01
2023-04-06 22:43:00,,0833.1,5.00,0.00,22.6,21.0,00.0,31.0,24.1,06.9,0000.0,0009.03,0003.67,0003.03
2023-04-06 22:44:00,,0833.4,5.01,0.00,22.6,21.1,00.0,31.0,24.1,07.4,0000.0,0009.54,0003.68,0003.04
2023-04-06 22:45:00,,0833.1,5.01,0.00,22.6,21.1,00.0,31.0,24.2,07.8,0000.0,0009.39,0003.69,0003.06
2023-04-06 22:46:00,,0833.1,5.00,0.00,22.6,21.1,00.0,31.0,24.2,07.1,0000.0,0009.37,0003.71,0003.08
2023-04-06 22:47:00,,0833.1,5.00,0.00,22.6,21.1,00.0,31.0,24.2,07.0,0000.0,0009.33,0003.73,0003.09
2023-04-06 22:48:00,,0833.2,4.99,0.00,22.6,21.1,00.0,31.0,24.2,07.2,0000.0,0009.65,0003.74,0003.10
2023-04-06 22:49:00,,0833.1,5.00,0.00,22.6,21.1,00.0,31.0,24.2,07.0,0000.0,0009.75,0003.76,0003.11
2023-04-06 22:50:00,,0833.1,5.01,0.00,22.6,21.1,00.0,31.0,24.2,07.3,0000.0,0009.90,0003.79,0003.13
2023-04-06 22:51:00,,0833.2,5.00,0.00,22.6,21.1,00.0,31.0,24.2,07.2,0000.0,0010.00,0003.81,0003.16
2023-04-06 22:52:00,,0833.1,5.01,0.00,22.6,21.2,00.0,31.0,24.2,07.2,0000.0,0010.64,0003.82,0003.18
2023-04-06 22:53:00,,0833.1,5.01,0.00,22.7,21.2,00.0,31.0,24.2,07.2,0000.0,0010.88,0003.85,0003.20
2023-04-06 22:54:00,,0833.2,4.99,0.00,22.7,21.2,00.0,31.0,24.2,07.3,0000.0,0010.91,0003.83,0003.20
2023-04-06 22:55:00,,0833.2,4.99,0.00,22.7,21.2,00.0,31.0,24.2,07.3,0000.0,0010.63,0003.88,0003.22
2023-04-06 22:56:00,,0833.2,5.02,0.00,22.7,21.3,00.0,31.0,24.2,07.1,0000.0,0011.12,0003.89,0003.22
2023-04-06 22:57:00,,0833.2,4.99,0.00,22.7,21.3,00.0,31.0,24.3,07.2,0000.0,0011.54,0003.94,0003.23
2023-04-06 22:58:00,,0833.2,5.00,0.00,22.7,21.3,00.0,31.0,24.3,07.0,0000.0,0011.60,0003.98,0003.25
2023-04-06 22:59:00,,0833.2,5.01,0.00,22.7,21.3,00.0,31.0,24.3,07.0,0000.0,0011.40,0004.01,0003.27
